sat.trackr.live / text

‹ back to catalog

CAS500-3

NORAD 66655 · 2025-274F

PAYLOAD ACTIVE UNKNOWN

§ Identity

Operator
Country
SKOR
Launch date
2025-11-26
Launch site
NSC
Launch vehicle
Mass (kg)
RCS (m²)

Purposes: earth_obs

External: N2YO · Heavens-Above · Gunter

§ Orbital elements

Epoch: 2026-05-25T02:05:36.112992Z

Period
96.76 min
Inclination
97.7447°
Eccentricity
0.0005079
Mean motion
14.88255319 rev/d
Perigee alt
599.8 km
Apogee alt
606.9 km
Semi-major
6,981.5 km
B*
1.1711e-4
RAAN
73.6652°
Arg perigee
175.8353°
Mean anomaly
184.2907°
Rev number
2,671

§ Raw data

CAS500-31 66655U 25274F   26145.08722353  .00001028  00000+0  11711-3 0  99902 66655  97.7447  73.6652 0005079 175.8353 184.2907 14.88255319 26713

JSON: /api/v1/satellites/66655 · /tle

For live sub-satellite position, see the globe view (requires WebGL).

§ Visibility from observer

Set your observer location to see the next 7 days of passes ≥ 10°. The values pass through the URL so the page stays shareable.

No JS? Fill the form by hand. The geolocation button needs JavaScript.